Weather History for Albert Lea, MN

Change the Weather History Date:

Sunday, January 19, 2014

  Actual Average Record
Temperature  
Mean Temperature 28 °F -  
Max Temperature 39 °F 20 °F 44 °F (2013)
Min Temperature 17 °F 6 °F -14 °F (2008)
Degree Days  
Heating Degree Days 37    
Moisture  
Dew Point 24 °F    
Average Humidity 78    
Maximum Humidity 93    
Minimum Humidity 65    
Precipitation  
Precipitation 0.00 in - - ()
Sea Level Pressure  
Sea Level Pressure 29.60 in    
Wind  
Wind Speed 12 mph (West)    
Max Wind Speed 16 mph    
Max Gust Speed 28 mph    
Visibility 10 miles    
Events      
Averages and records for this station are not official NWS values.
T = Trace of Precipitation, MM = Missing Value Source: NWS Daily Summary

Daily Weather History Graph

Daily Weather History Graph

Search for Another Location

Airport:

Trip Planner

Search our weather history database for the weather conditions in past years. The results will help you decide how hot, cold, wet, or windy it might be!

Date:

Astronomy

Jan. 19, 2014 Rise Set
Actual Time 7:41 AM CST 5:07 PM CST
Civil Twilight 7:10 AM CST 5:38 PM CST
Nautical Twilight 6:34 AM CST 6:14 PM CST
Astronomical Twilight 6:00 AM CST 6:48 PM CST
Moon 8:54 PM CST (1/19) 9:04 AM CST (1/19)
Length of Visible Light 10h 28m
Length of Day
9h 25m
Waning Gibbous, 89% of the Moon is Illuminated
Jan 19
Waning Gibbous
Jan 23
Last Quarter
Jan 30
New
Feb 6
First Quarter
Feb 14
Full

Hourly Weather History & Observations

Time (CST) Temp. Windchill Dew Point Humidity Pressure Visibility Wind Dir Wind Speed Gust Speed Precip Events Conditions
12:09 AM 17.6 °F 3.7 °F 12.2 °F 79% 29.78 in 10.0 mi SW 13.8 mph 18.4 mph N/A   Clear
12:29 AM 17.6 °F 5.7 °F 14.0 °F 86% 29.75 in 10.0 mi SW 10.4 mph - N/A   Clear
12:49 AM 17.6 °F 7.3 °F 15.8 °F 93% 29.77 in 10.0 mi WSW 8.1 mph - N/A   Clear
1:09 AM 17.6 °F 5.0 °F 15.8 °F 93% 29.75 in 10.0 mi SW 11.5 mph 17.3 mph N/A   Clear
1:29 AM 19.4 °F 7.2 °F 15.8 °F 86% 29.73 in 10.0 mi SW 11.5 mph - N/A   Clear
1:49 AM 19.4 °F 7.2 °F 17.6 °F 93% 29.72 in 10.0 mi SW 11.5 mph - N/A   Clear
2:09 AM 21.2 °F 8.9 °F 19.4 °F 93% 29.71 in 10.0 mi WSW 12.7 mph 19.6 mph N/A   Clear
2:29 AM 21.2 °F 8.3 °F 19.4 °F 93% 29.71 in 10.0 mi SW 13.8 mph 21.9 mph N/A   Clear
2:49 AM 21.2 °F 8.9 °F 19.4 °F 93% 29.69 in 10.0 mi WSW 12.7 mph 23.0 mph N/A   Clear
3:09 AM 23.0 °F 11.1 °F 19.4 °F 86% 29.69 in 10.0 mi WSW 12.7 mph 21.9 mph N/A   Clear
3:29 AM 23.0 °F 10.1 °F 19.4 °F 86% 29.68 in 10.0 mi WSW 15.0 mph 23.0 mph N/A   Clear
3:49 AM 24.8 °F 12.4 °F 19.4 °F 80% 29.66 in 10.0 mi WSW 15.0 mph 24.2 mph N/A   Clear
4:09 AM 24.8 °F 12.9 °F 19.4 °F 80% 29.65 in 10.0 mi WSW 13.8 mph 23.0 mph N/A   Clear
4:29 AM 24.8 °F 12.9 °F 19.4 °F 80% 29.64 in 10.0 mi WSW 13.8 mph 25.3 mph N/A   Clear
4:49 AM 24.8 °F 12.4 °F 19.4 °F 80% 29.63 in 10.0 mi WSW 15.0 mph 21.9 mph N/A   Clear
5:09 AM 24.8 °F 12.9 °F 19.4 °F 80% 29.62 in 10.0 mi SW 13.8 mph 25.3 mph N/A   Clear
5:28 AM 24.8 °F 12.4 °F 19.4 °F 80% 29.61 in 10.0 mi WSW 15.0 mph 21.9 mph N/A   Clear
5:49 AM 24.8 °F 12.9 °F 19.4 °F 80% 29.59 in 10.0 mi WSW 13.8 mph 17.3 mph N/A   Clear
6:09 AM 26.6 °F 16.2 °F 19.4 °F 74% 29.60 in 10.0 mi WSW 11.5 mph 17.3 mph N/A   Clear
6:28 AM 26.6 °F 14.7 °F 19.4 °F 74% 29.59 in 10.0 mi WSW 15.0 mph 20.7 mph N/A   Clear
6:49 AM 26.6 °F 14.3 °F 19.4 °F 74% 29.59 in 10.0 mi WSW 16.1 mph 26.5 mph N/A   Clear
7:09 AM 26.6 °F 15.2 °F 19.4 °F 74% 29.60 in 10.0 mi WSW 13.8 mph 21.9 mph N/A   Clear
7:29 AM 26.6 °F 14.3 °F 19.4 °F 74% 29.60 in 10.0 mi WSW 16.1 mph 26.5 mph N/A   Clear
7:49 AM 26.6 °F 15.2 °F 19.4 °F 74% 29.59 in 10.0 mi WSW 13.8 mph 20.7 mph N/A   Clear
8:09 AM 26.6 °F 15.2 °F 19.4 °F 74% 29.58 in 10.0 mi WSW 13.8 mph 23.0 mph N/A   Clear
8:29 AM 26.6 °F 15.7 °F 19.4 °F 74% 29.58 in 10.0 mi WSW 12.7 mph 18.4 mph N/A   Clear
8:49 AM 26.6 °F 17.5 °F 19.4 °F 74% 29.58 in 10.0 mi SW 9.2 mph 18.4 mph N/A   Clear
9:08 AM 28.4 °F 21.2 °F 19.4 °F 69% 29.58 in 10.0 mi WSW 6.9 mph 17.3 mph N/A   Clear
9:29 AM 28.4 °F 20.4 °F 21.2 °F 74% 29.57 in 10.0 mi WSW 8.1 mph 17.3 mph N/A   Clear
9:49 AM 28.4 °F 20.4 °F 21.2 °F 74% 29.59 in 10.0 mi WSW 8.1 mph 18.4 mph N/A   Clear
10:08 AM 30.2 °F 20.2 °F 21.2 °F 69% 29.60 in 10.0 mi West 12.7 mph 20.7 mph N/A   Clear
10:29 AM 30.2 °F 20.8 °F 21.2 °F 69% 29.60 in 10.0 mi West 11.5 mph 21.9 mph N/A   Clear
10:49 AM 30.2 °F 21.3 °F 21.2 °F 69% 29.60 in 10.0 mi West 10.4 mph 16.1 mph N/A   Clear
11:09 AM 33.8 °F 26.4 °F 24.8 °F 70% 29.58 in 10.0 mi West 9.2 mph - N/A   Clear
11:29 AM 33.8 °F 27.7 °F 24.8 °F 70% 29.54 in 10.0 mi WSW 6.9 mph - N/A   Clear
11:49 AM 35.6 °F 29.9 °F 24.8 °F 65% 29.53 in 10.0 mi WSW 6.9 mph - N/A   Clear
12:09 PM 35.6 °F 29.9 °F 24.8 °F 65% 29.51 in 10.0 mi West 6.9 mph - N/A   Clear
12:29 PM 35.6 °F 28.0 °F 26.6 °F 70% 29.48 in 10.0 mi SW 10.4 mph - N/A   Clear
12:49 PM 35.6 °F 27.5 °F 26.6 °F 70% 29.49 in 10.0 mi WSW 11.5 mph - N/A   Clear
1:09 PM 37.4 °F 28.5 °F 26.6 °F 65% 29.48 in 10.0 mi WSW 15.0 mph 19.6 mph N/A   Clear
1:29 PM 39.2 °F 32.5 °F 28.4 °F 65% 29.48 in 10.0 mi WSW 10.4 mph 17.3 mph N/A   Clear
1:49 PM 39.2 °F 31.6 °F 28.4 °F 65% 29.47 in 10.0 mi West 12.7 mph 18.4 mph N/A   Clear
2:09 PM 39.2 °F 31.2 °F 30.2 °F 70% 29.47 in 10.0 mi WSW 13.8 mph 18.4 mph N/A   Clear
2:29 PM 39.2 °F 32.5 °F 30.2 °F 70% 29.47 in 10.0 mi WSW 10.4 mph 17.3 mph N/A   Clear
2:49 PM 39.2 °F 33.0 °F 30.2 °F 70% 29.46 in 10.0 mi WSW 9.2 mph 17.3 mph N/A   Clear
3:09 PM 39.2 °F 33.0 °F 30.2 °F 70% 29.48 in 10.0 mi West 9.2 mph 17.3 mph N/A   Clear
3:29 PM 39.2 °F 33.6 °F 30.2 °F 70% 29.48 in 10.0 mi West 8.1 mph 17.3 mph N/A   Clear
3:49 PM 39.2 °F 32.5 °F 30.2 °F 70% 29.49 in 10.0 mi West 10.4 mph 19.6 mph N/A   Clear
4:09 PM 39.2 °F 31.2 °F 30.2 °F 70% 29.50 in 10.0 mi West 13.8 mph 20.7 mph N/A   Clear
4:29 PM 39.2 °F 31.2 °F 30.2 °F 70% 29.51 in 10.0 mi West 13.8 mph 20.7 mph N/A   Clear
4:49 PM 39.2 °F 31.2 °F 30.2 °F 70% 29.52 in 10.0 mi West 13.8 mph 21.9 mph N/A   Clear
5:09 PM 37.4 °F 28.5 °F 30.2 °F 75% 29.53 in 10.0 mi WNW 15.0 mph 21.9 mph N/A   Clear
5:29 PM 37.4 °F 28.9 °F 30.2 °F 75% 29.54 in 10.0 mi WNW 13.8 mph 26.5 mph N/A   Clear
5:49 PM 37.4 °F 28.2 °F 30.2 °F 75% 29.54 in 10.0 mi WNW 16.1 mph 26.5 mph N/A   Clear
6:09 PM 37.4 °F 28.2 °F 30.2 °F 75% 29.55 in 10.0 mi WNW 16.1 mph 24.2 mph N/A   Clear
6:29 PM 37.4 °F 28.2 °F 30.2 °F 75% 29.56 in 10.0 mi WNW 16.1 mph 27.6 mph N/A   Clear
6:49 PM 37.4 °F 28.9 °F 30.2 °F 75% 29.57 in 10.0 mi WNW 13.8 mph 23.0 mph N/A   Clear
7:09 PM 35.6 °F 25.9 °F 28.4 °F 75% 29.59 in 10.0 mi WNW 16.1 mph 24.2 mph N/A   Clear
7:29 PM 35.6 °F 26.2 °F 28.4 °F 75% 29.60 in 10.0 mi NW 15.0 mph 24.2 mph N/A   Scattered Clouds
7:49 PM 35.6 °F 27.5 °F 28.4 °F 75% 29.62 in 10.0 mi NW 11.5 mph 25.3 mph N/A   Mostly Cloudy
8:09 PM 33.8 °F 25.3 °F 28.4 °F 81% 29.63 in 10.0 mi NW 11.5 mph 19.6 mph N/A   Overcast
8:29 PM 33.8 °F 25.8 °F 28.4 °F 81% 29.64 in 10.0 mi NW 10.4 mph 17.3 mph N/A   Mostly Cloudy
8:49 PM 30.2 °F 21.9 °F 26.6 °F 86% 29.65 in 10.0 mi WNW 9.2 mph 19.6 mph N/A   Clear
9:09 PM 30.2 °F 21.3 °F 26.6 °F 86% 29.66 in 10.0 mi WNW 10.4 mph 18.4 mph N/A   Clear
9:29 PM 30.2 °F 22.6 °F 26.6 °F 86% 29.67 in 10.0 mi WNW 8.1 mph - N/A   Clear
9:49 PM 30.2 °F 22.6 °F 26.6 °F 86% 29.69 in 10.0 mi WNW 8.1 mph - N/A   Clear
10:09 PM 28.4 °F 20.4 °F 26.6 °F 93% 29.69 in 10.0 mi WNW 8.1 mph - N/A   Clear
10:29 PM 28.4 °F 19.7 °F 26.6 °F 93% 29.70 in 10.0 mi WNW 9.2 mph - N/A   Clear
10:49 PM 28.4 °F 21.2 °F 26.6 °F 93% 29.71 in 10.0 mi WNW 6.9 mph - N/A   Clear
11:09 PM 28.4 °F 21.2 °F 24.8 °F 86% 29.71 in 10.0 mi WNW 6.9 mph - N/A   Clear
11:29 PM 28.4 °F 21.2 °F 24.8 °F 86% 29.72 in 10.0 mi WNW 6.9 mph - N/A   Clear
11:49 PM 28.4 °F 21.2 °F 24.8 °F 86% 29.73 in 10.0 mi WNW 6.9 mph - N/A   Clear